Location: Newark
(47.5989°N, 4.6950°E)
Time: 01:10:37
(UTC+00:00)

Envisat - Pass Details

Date: 20 November 2019
Orbit: 764 x 766 km, 98.1° (Epoch: 06 December)

Event Time Altitude Azimuth Distance (km) Brightness Sun altitude
Rises 18:18:38 0° 189° (S) 3,219 6.4 -23.1°
Reaches altitude 10° 18:21:06 10° 198° (SSW) 2,298 5.7 -23.5°
Maximum altitude 18:25:45 36° 264° (W) 1,207 4.5 -24.3°
Drops below altitude 10° 18:30:25 10° 330° (NNW) 2,313 5.8 -25.0°
Sets 18:32:56 0° 340° (NNW) 3,244 6.5 -25.5°
